www.pogodaiklimat.ru

Погода и климат >> Архив погоды >> Грузия >> Тбилиси


АРХИВ ПОГОДЫ в Тбилиси

Время (UTC), дата Ветер
(напр.,м/с)
 
Видим.   Явления Облачность Т
(С)
Тd
(С)
f
(%)
Тe
(С)
Тes
(С)
Комфортность P
(гПа)
Po
(гПа)
Тmin
(С)
Tmax
(С)
R
(мм)
R24
(мм)
S
(см)
18 18.06 СЗ 2-2
{5}
н/о н/о +25.1 +14.9 53 +28 +28 жарко 1008.3 960.1 +32.7 0.0
21 18.06 СЗ 4 н/о 8/8 600 м
[Cb calv]
+22.8 +15.3 63 +27 +27 душно 1008.1 960.1
00 19.06 СЗ 1-1
{4}
н/о {гроза, ливн. осадки} н/о +18.5 +18.4 99 +20 +20 тепло 1011.1 961.7 20
03 19.06 Ю 6-2
{5}
н/о {гроза, ливн. осадки} н/о +18.5 +18.2 98 +19 +19 по сезону 1011.4 962.6
06 19.06 СЗ 3 н/о {гроза, ливн. осадки} н/о +18.6 +18.6 100 +20 +20 прохладно 1012.7 963.2 +17.6 47
09 19.06 С 3 50 км 5/3 600 м
[Cb calv Ac lent Ci]
+26.4 +16.8 56 +30 +40 душно 1009.1 961.6
12 19.06 Ю 4 50 км 5/5 600 м
[Cb calv]
+29.6 +14.2 39 +32 +36 душно 1006.8 959.7
15 19.06 СЗ 3 50 км 5/4 600 м
[Cu med, cong Ci]
+28.5 +16.1 47 +32 +33 душно 1006.2 959.1 +30.3
18 19.06 н/о 3/0 600 м
[Ac lent Ci]
+23.2 +17.6 71 1008.1 960.1 +30.3 5
21 19.06 С 2 н/о 5/3 600 м
[Sc Ac lent Ci]
+21.3 +17.3 78 +25 +25 комфорт 1008.9 960.7
00 20.06 н/о 8/5 600 м
[Sc As op Cs]
+20.7 +17.3 81 1009.3 960.9
03 20.06 штиль 0 50 км {ливн. осадки} 6/4 600 м
[Cb calv Ac lent]
+20.8 +19.0 89 +25 +26 комфорт 1009.5 961.0
06 20.06 Ю 3 50 км {ливн. осадки} 6/4 600 м
[Cu med, cong Ac lent]
+26.8 +16.3 53 +30 +35 душно 1008.0 960.5 0.3
09 20.06 З 4 50 км 3/3 600 м
[Cb calv]
+31.1 +15.1 38 +33 +43 душно 1005.4 958.7
12 20.06 З 6 50 км 9/6 600 м
[Cb calv As trans]
+30.9 +15.0 38 +33 +34 душно 1003.9 957.2
15 20.06 С 6 50 км 9/8 600 м
[Cb calv Ac trans Cc]
+28.9 +14.4 41 +31 +31 жарко 1004.0 957.0 +32.4
18 20.06 ЮЗ 5 н/о 8/8 600 м
[Cb calv]
+25.9 +16.1 55 +29 +29 душно 1006.4 958.9 +32.4
21 20.06 С 6 н/о 5/0 600 м
[As trans]
+22.9 +15.2 62 +27 +27 душно 1007.4 959.4
00 21.06 штиль 0 н/о 3/3 600 м
[Cu hum]
+20.1 +15.8 76 +22 +22 комфорт 1008.2 959.7
03 21.06 штиль 0 50 км 4/0
[Ac trans Cc]
+20.5 +16.2 76 +23 +25 комфорт 1008.7 960.3
06 21.06 штиль 0 н/о н/о +24.8 +16.8 61 +28 +28 жарко 1009.6 961.2 +19.0
09 21.06 штиль 0 50 км 10/10 600 м
[Cb calv]
+25.3 +15.8 56 +29 +29 душно 1009.5 961.7
12 21.06 штиль 0 50 км 8/5 600 м
[Cb calv Ac lent]
+27.3 +15.0 47 +30 +34 душно 1008.7 961.2
15 21.06 штиль 0 50 км 6/4 600 м
[Cu hum Ac lent]
+28.2 +14.9 44 +31 +32 душно 1007.6 960.4 +30.5
18 21.06 штиль 0 н/о ясно +22.5 +14.3 60 +26 +26 жарко 1010.1 961.8 +30.5
21 21.06 штиль 0 н/о ясно +20.1 +13.6 66 +22 +22 комфорт 1011.4 962.8
00 22.06 З 2 н/о н/о +18.5 +13.7 74 +20 +20 тепло 1012.8 963.3
03 22.06 штиль 0 50 км ясно +19.5 +14.9 75 +21 +23 комфорт 1013.1 964.2
06 22.06 штиль 0 50 км 8/0
[Ci]
+26.9 +16.0 51 +30 +40 душно 1011.7 964.1
09 22.06 СВ 4 50 км 3/3 600 м
[Cu hum]
+30.7 +15.3 39 +33 +43 душно 1009.2 962.3
12 22.06 СВ 6 50 км 3/3 600 м
[Cu hum]
+32.6 +15.9 37 +35 +39 душно 1008.1 961.5
15 22.06 В 4 50 км 3/3 600 м
[Cu hum]
+31.1 +16.3 41 +34 +35 душно 1007.5 960.7 +33.5
18 22.06 штиль 0 н/о 3/3 600 м
[Cu hum]
+26.2 +17.8 60 +31 +31 очень
душно
1010.5 962.8 +33.5
21 22.06 штиль 0 н/о ясно +22.6 +17.3 72 +27 +27 душно 1011.7 963.5
00 23.06 штиль 0 н/о ясно +20.9 +16.9 78 +24 +24 комфорт 1012.8 964.2
03 23.06 штиль 0 50 км ясно +21.7 +15.5 68 +25 +27 комфорт 1013.1 964.7
06 23.06 штиль 0 50 км 3/0
[As trans Ci]
+27.9 +18.1 55 +32 +46 душно 1011.5 964.1
09 23.06 Ю 4 50 км 8/5 600 м
[Cb calv Ac lent Ci]
+32.1 +15.1 36 +34 +39 душно 1009.9 963.1
12 23.06 С 6 50 км 3/3 600 м
[Cu med, cong]
+34.3 +16.2 34 +37 +40 очень
душно
1007.9 961.5
15 23.06 СЗ 4 50 км 8/5 600 м
[Sc diur, vesp Ac lent Ci]
+31.7 +17.9 44 +36 +36 очень
душно
1007.5 960.9 +34.6
18 23.06 С 3 н/о 6/4 600 м
[Sc diur, vesp Ac lent Ci]
+27.0 +17.8 57 +31 +31 душно 1009.8 962.3 +34.6
21 23.06 Ю 3 н/о гроза, ливневой дождь 10/10 600 м
[Cb calv]
+23.3 +20.8 86 +31 +31 очень
душно
1012.2 964.1
00 24.06 СВ 3 н/о {гроза, ливн. осадки} 6/4 600 м
[Cu med, cong Ci]
+22.7 +19.2 81 +29 +29 очень
душно
1012.3 964.1
03 24.06 С 2 50 км 9/9 600 м
[Cb calv]
+22.8 +19.0 79 +29 +29 очень
душно
1012.4 964.2
06 24.06 С 5 50 км в посл. час ливневой дождь 9/9 600 м
[Cb calv]
+25.4 +19.2 69 +31 +31 очень
душно
1011.9 964.1 0.5
09 24.06 С 4 50 км 3/3 600 м
[Cu hum]
+31.9 +18.9 46 +37 +47 очень
душно
1009.9 963.1
12 24.06 СВ 4 50 км 4/4 600 м
[Cu hum]
+34.0 +17.4 37 +37 +43 очень
душно
1008.3 961.9
15 24.06 Ю 4 4000 м гроза, ливневой дождь 10/10 600 м
[Cb calv]
+23.8 +19.1 75 +29 +29 душно 1010.3 962.3 +34.5 1
18 24.06 С 6 н/о 3/3 600 м
[Cu hum]
+24.6 +20.0 76 +30 +30 очень
душно
1011.7 963.8 +34.5 1
21 24.06 З 4 н/о ясно +23.6 +20.7 84 +29 +29 душно 1014.2 966.0
00 25.06 штиль 0 н/о 4/4 600 м
[Cu hum]
+22.9 +20.0 84 +30 +30 очень
душно
1012.8 964.7
03 25.06 С 6 50 км 4/4 600 м
[Cu hum]
+22.5 +18.7 79 +28 +28 душно 1012.9 964.7
06 25.06 С 8 50 км 4/4 600 м
[Cu hum]
+27.1 +20.9 69 +34 +35 очень
душно
1011.7 964.3
09 25.06 ЮВ 5 50 км ясно +33.1 +18.6 42 +38 +48 очень
душно
1010.2 963.7
12 25.06 штиль 0 50 км 3/1 600 м
[Cu hum Ac lent]
+35.9 +15.1 29 +37 +50 душно 1008.7 962.6
15 25.06 З 4 50 км 5/0
[Ac lent]
+33.7 +15.5 34 +36 +37 очень
душно
1008.4 962.0 +36.4

 

Местоположение метеостанции Тбилиси (Грузия): широта 41.70 долгота 44.75 высота над уровнем моря 403 м.

В архиве по умолчанию представлена погода в Тбилиси за последнюю неделю. Архивные данные за месяц целиком и за предыдущие месяцы, начиная с января 2011 года, Вы можете получить, выбрав интересующий диапазон дат из раскрывающегося списка и нажав кнопку "Ввод!".


*Определитесь, кто Вы:
робот инопланетянин человек

Внимание! Время в таблицах - всемирное. Для получения местного времени необходимо прибавить поправку, которая равна 4 ч.

Смотрите также архив погоды в соседних городах и на ближайших метеорологических станциях:

Погода в Болниси (Грузия) (32 км)
Погода в Телави (Грузия) (58 км)
Погода в Гори (Грузия) (61 км)
Погода в Пасанаури (Грузия) (72 км)
Погода в Иджеване (Армения) (98 км)
Погода в Ванадзоре (Армения) (100 км)
Погода в Ашотске (Армения) (116 км)
Погода на Рокском Перевале (Северная Осетия, Россия) (117 км)
Погода в Наре (Северная Осетия, Россия) (125 км)
Погода в Аспиндзе (Грузия) (126 км)

Пояснения к столбцам:

Ветер - указаны скорость ветра в м/с - средняя за 10 мин, порывы в срок и между сроками (в фигурных скобках) и направление, откуда дует ветер: С - северный, СВ - северо-восточный, В - восточный, ЮВ - юго-восточный, Ю - южный, ЮЗ - юго-западный, З - западный, СЗ - северо-западный.
Видимость - горизонтальная дальность видимости в метрах или километрах. При видимости от 1 до 10 км при отсутствии осадков обычно наблюдается дымка, при ухудшении видимости до 1 км и менее - туман. В сухую погоду видимость может ухудшаться дымом, пылью или мглою.
Явления - указаны атмосферные явления, наблюдавшиеся в срок или в последний час перед сроком; фигурными скобками обозначены явления, наблюдавшиеся между сроками (за 1-3 часа до срока); квадратными скобками обозначены град или гололедные отложения с указанием их диаметра в мм.
Облачность - указаны через наклонную черту общая и нижняя облачность в баллах и высота нижней границы облаков в метрах; квадратными скобками обозначены формы облаков: Ci - перистые, Cs - перисто-слоистые, Cc - перисто-кучевые, Ac - высококучевые, As - высокослоистые, Sc - слоисто-кучевые, Ns - слоисто-дождевые, Cu - кучевые, Cb - кучево-дождевые. Подробнее классификацию облаков см. в Атласе облаков (PDF).
T - Температура воздуха - температура, измеренная на высоте 2 м над землей.
Td - Температура точки росы - температура, при понижении до которой содержащийся в воздухе водяной пар достигнет насыщения.
f - Относительная влажность воздуха - влажноcть воздуха, измеренная на высоте 2 м над землей.
Te - Эффективная температура - температура, которую ощущает одетый по сезону человек в тени. Характеристика душности погоды. При расчете учитывается влияние влажности воздуха и скорости ветра на теплоощущения человека.
Tes - Эффективная температура на солнце - температура, которую ощущает человек, с поправкой на солнечный нагрев. Характеристика знойности погоды. Зависит от высоты солнца над горизонтом, облачности и скорости ветра. Ночью, в пасмурную погоду, а также при ветре 12 м/с и более поправка равна нулю.
P - Атмосферное давление - приведенное к уровню моря атмосферное давление.
Po - Атмосферное давление - измеренное на уровне метеостанции атмосферное давление.
Tmin - Минимальная температура - минимум температуры воздуха на высоте 2 м над землей.
Tmax - Максимальная температура - максимум температуры воздуха на высоте 2 м над землей.
R - Количество осадков - Количество выпавших осадков за период времени, мм. При наведении курсора мыши на число - период времени, за который выпало указанное количество осадков.
R24 - Количество осадков - Количество выпавших осадков за 24 часа, мм.
S - Снежный покров - Высота снежного покрова, см. При наведении курсора мыши на число - состояние снежного покрова и степень покрытия местности в баллах.